• In Germany
  • List of Countries
  • For 7 days
  • Water Temperature
  • Satellite Maps
  • Weather Map
  • Weather Widgets
  • user-avatar
    Login

    Hourly Weather Melbourne

    Today, 24 July, Monday

    Time Temperature Precipitation Wind Pressure Humidity
    00:00 +8°C° 0 mm 2 mps 761 mmHg 95%
    01:00 +8°C° 0 mm 2 mps 761 mmHg 95%
    02:00 +7°C° 0 mm 2 mps 761 mmHg 95%
    03:00 +7°C° 0 mm 2 mps 762 mmHg 96%
    04:00 +7°C° 0 mm 2 mps 762 mmHg 96%
    05:00 +7°C° 0 mm 2 mps 762 mmHg 96%
    06:00 +7°C° 0 mm 2 mps 762 mmHg 96%
    07:00 +7°C° 0 mm 2 mps 763 mmHg 95%
    08:00 +8°C° 0 mm 3 mps 763 mmHg 92%
    09:00 +9°C° 0 mm 3 mps 763 mmHg 88%
    10:00 +11°C° 0 mm 3 mps 763 mmHg 84%
    11:00 +12°C° 0 mm 3 mps 763 mmHg 78%
    12:00 +13°C° 0 mm 3 mps 763 mmHg 73%
    13:00 +14°C° 0 mm 3 mps 763 mmHg 67%
    14:00 +14°C° 0.1 mm 3 mps 763 mmHg 69%
    15:00 +14°C° 0.1 mm 3 mps 762 mmHg 70%
    16:00 +13°C° 0.1 mm 3 mps 762 mmHg 72%
    17:00 +12°C° 0 mm 3 mps 762 mmHg 78%
    18:00 +11°C° 0 mm 3 mps 763 mmHg 84%
    19:00 +10°C° 0 mm 3 mps 763 mmHg 90%
    20:00 +10°C° 0.1 mm 3 mps 763 mmHg 90%
    21:00 +10°C° 0.1 mm 3 mps 763 mmHg 91%
    22:00 +10°C° 0.1 mm 3 mps 763 mmHg 92%
    23:00 +8°C° 0 mm 4 mps 763 mmHg 92%

    Tomorrow, 25 July, Tuesday

    Time Temperature Precipitation Wind Pressure Humidity
    00:00 +8°C° 0 mm 4 mps 763 mmHg 92%
    01:00 +8°C° 0 mm 4 mps 762 mmHg 92%
    02:00 +8°C° 0 mm 4 mps 762 mmHg 90%
    03:00 +8°C° 0 mm 4 mps 762 mmHg 89%
    04:00 +8°C° 0 mm 4 mps 762 mmHg 87%
    05:00 +8°C° 0 mm 5 mps 761 mmHg 86%
    06:00 +8°C° 0 mm 5 mps 761 mmHg 84%
    07:00 +8°C° 0 mm 5 mps 761 mmHg 82%
    08:00 +9°C° 0 mm 5 mps 761 mmHg 78%
    09:00 +10°C° 0 mm 6 mps 761 mmHg 73%
    10:00 +13°C° 0 mm 6 mps 761 mmHg 69%
    11:00 +14°C° 0 mm 6 mps 760 mmHg 64%
    12:00 +15°C° 0 mm 6 mps 759 mmHg 60%
    13:00 +16°C° 0 mm 6 mps 759 mmHg 55%
    14:00 +16°C° 0 mm 6 mps 758 mmHg 58%
    15:00 +16°C° 0 mm 5 mps 758 mmHg 61%
    16:00 +16°C° 0 mm 5 mps 757 mmHg 63%
    17:00 +14°C° 0.4 mm 4 mps 757 mmHg 70%
    18:00 +13°C° 0.4 mm 4 mps 758 mmHg 77%
    19:00 +12°C° 0.4 mm 4 mps 758 mmHg 83%
    20:00 +12°C° 0.2 mm 4 mps 758 mmHg 84%
    21:00 +11°C° 0.2 mm 4 mps 758 mmHg 85%
    22:00 +10°C° 0.2 mm 5 mps 758 mmHg 86%
    23:00 +10°C° 0 mm 5 mps 758 mmHg 86%

    Day after tomorrow, 26 July, Wednesday

    Time Temperature Precipitation Wind Pressure Humidity
    00:00 +9°C° 0 mm 5 mps 758 mmHg 86%
    01:00 +9°C° 0 mm 5 mps 758 mmHg 86%
    02:00 +9°C° 0 mm 5 mps 758 mmHg 86%
    03:00 +8°C° 0 mm 5 mps 758 mmHg 86%
    04:00 +8°C° 0 mm 5 mps 758 mmHg 86%
    05:00 +8°C° 0 mm 4 mps 759 mmHg 86%
    06:00 +10°C° 0 mm 4 mps 759 mmHg 86%
    07:00 +10°C° 0 mm 4 mps 759 mmHg 85%
    08:00 +9°C° 0.1 mm 5 mps 760 mmHg 83%
    09:00 +10°C° 0.1 mm 5 mps 760 mmHg 80%
    10:00 +12°C° 0.1 mm 5 mps 761 mmHg 77%
    11:00 +12°C° 0.3 mm 5 mps 761 mmHg 75%
    12:00 +13°C° 0.3 mm 6 mps 761 mmHg 73%
    13:00 +13°C° 0.3 mm 6 mps 762 mmHg 71%
    14:00 +13°C° 0.3 mm 5 mps 762 mmHg 72%
    15:00 +12°C° 0.3 mm 4 mps 763 mmHg 73%
    16:00 +12°C° 0.3 mm 4 mps 763 mmHg 73%
    17:00 +11°C° 0.1 mm 3 mps 763 mmHg 77%
    18:00 +9°C° 0.1 mm 3 mps 764 mmHg 81%
    19:00 +8°C° 0.1 mm 2 mps 765 mmHg 85%
    20:00 +8°C° 0 mm 2 mps 765 mmHg 87%
    21:00 +7°C° 0 mm 2 mps 766 mmHg 88%
    22:00 +7°C° 0 mm 2 mps 766 mmHg 90%
    23:00 +6°C° 0 mm 2 mps 766 mmHg 91%

    27 July, Thursday

    Time Temperature Precipitation Wind Pressure Humidity
    00:00 +6°C° 0 mm 2 mps 766 mmHg 92%
    01:00 +6°C° 0 mm 2 mps 766 mmHg 93%
    02:00 +6°C° 0 mm 2 mps 766 mmHg 94%
    03:00 +6°C° 0 mm 1 mps 766 mmHg 94%
    04:00 +6°C° 0 mm 1 mps 766 mmHg 94%
    05:00 +6°C° 0 mm 1 mps 766 mmHg 94%
    06:00 +5°C° 0 mm 2 mps 766 mmHg 94%
    07:00 +5°C° 0 mm 2 mps 766 mmHg 93%
    08:00 +6°C° 0 mm 2 mps 766 mmHg 88%
    09:00 +8°C° 0 mm 3 mps 766 mmHg 82%
    10:00 +9°C° 0 mm 3 mps 766 mmHg 77%
    11:00 +11°C° 0 mm 4 mps 765 mmHg 71%
    12:00 +12°C° 0 mm 4 mps 764 mmHg 65%
    13:00 +13°C° 0 mm 5 mps 763 mmHg 59%
    14:00 +13°C° 0 mm 5 mps 763 mmHg 61%
    15:00 +13°C° 0 mm 5 mps 762 mmHg 64%
    16:00 +13°C° 0 mm 6 mps 761 mmHg 66%
    17:00 +11°C° 0.5 mm 6 mps 761 mmHg 72%
    18:00 +10°C° 0.5 mm 7 mps 761 mmHg 78%
    19:00 +10°C° 0.5 mm 7 mps 760 mmHg 84%
    20:00 +10°C° 0.2 mm 7 mps 760 mmHg 84%
    21:00 +10°C° 0.2 mm 8 mps 759 mmHg 84%
    22:00 +10°C° 0.2 mm 8 mps 759 mmHg 84%
    23:00 +10°C° 0.3 mm 8 mps 759 mmHg 84%

    28 July, Friday

    Time Temperature Precipitation Wind Pressure Humidity
    00:00 +10°C° 0.3 mm 7 mps 758 mmHg 85%
    01:00 +10°C° 0.3 mm 7 mps 758 mmHg 85%
    02:00 +9°C° 0.4 mm 6 mps 758 mmHg 87%
    03:00 +9°C° 0.4 mm 5 mps 759 mmHg 90%
    04:00 +8°C° 0.4 mm 4 mps 759 mmHg 92%
    05:00 +8°C° 0 mm 4 mps 759 mmHg 92%
    06:00 +8°C° 0 mm 3 mps 760 mmHg 92%
    07:00 +8°C° 0 mm 3 mps 761 mmHg 92%
    08:00 +9°C° 0 mm 3 mps 761 mmHg 88%
    09:00 +10°C° 0 mm 3 mps 761 mmHg 84%
    10:00 +11°C° 0 mm 3 mps 762 mmHg 79%
    11:00 +12°C° 0 mm 3 mps 762 mmHg 72%
    12:00 +14°C° 0 mm 3 mps 761 mmHg 65%
    13:00 +16°C° 0 mm 3 mps 761 mmHg 57%
    14:00 +16°C° 0 mm 3 mps 761 mmHg 59%
    15:00 +14°C° 0 mm 3 mps 760 mmHg 61%
    16:00 +14°C° 0 mm 3 mps 760 mmHg 63%
    17:00 +13°C° 0 mm 4 mps 760 mmHg 66%
    18:00 +13°C° 0 mm 4 mps 760 mmHg 70%
    19:00 +12°C° 0 mm 5 mps 760 mmHg 73%
    20:00 +12°C° 0 mm 5 mps 760 mmHg 70%
    21:00 +11°C° 0 mm 6 mps 760 mmHg 66%
    22:00 +11°C° 0 mm 6 mps 759 mmHg 63%
    23:00 +12°C° 0 mm 7 mps 758 mmHg 61%

    29 July, Saturday

    Time Temperature Precipitation Wind Pressure Humidity
    00:00 +12°C° 0 mm 7 mps 758 mmHg 59%
    01:00 +12°C° 0 mm 8 mps 757 mmHg 58%
    02:00 +12°C° 0 mm 8 mps 756 mmHg 58%
    03:00 +12°C° 0 mm 8 mps 755 mmHg 58%
    04:00 +12°C° 0 mm 9 mps 755 mmHg 58%
    05:00 +12°C° 0 mm 8 mps 755 mmHg 57%
    06:00 +12°C° 0 mm 8 mps 754 mmHg 57%
    07:00 +11°C° 0 mm 8 mps 754 mmHg 57%
    08:00 +12°C° 0 mm 8 mps 754 mmHg 54%
    09:00 +13°C° 0 mm 8 mps 754 mmHg 51%
    10:00 +16°C° 0 mm 7 mps 753 mmHg 48%
    11:00 +17°C° 0 mm 7 mps 753 mmHg 46%
    12:00 +18°C° 0 mm 7 mps 752 mmHg 44%
    13:00 +21°C° 0 mm 7 mps 751 mmHg 42%
    14:00 +21°C° 0 mm 6 mps 751 mmHg 43%
    15:00 +21°C° 0 mm 6 mps 750 mmHg 45%
    16:00 +20°C° 0 mm 6 mps 750 mmHg 47%
    17:00 +17°C° 0 mm 5 mps 750 mmHg 55%
    18:00 +16°C° 0 mm 5 mps 750 mmHg 64%
    19:00 +14°C° 0 mm 4 mps 751 mmHg 73%
    20:00 +13°C° 1.4 mm 4 mps 751 mmHg 80%
    21:00 +12°C° 1.4 mm 4 mps 752 mmHg 86%
    22:00 +11°C° 1.4 mm 3 mps 753 mmHg 92%
    23:00 +11°C° 1.3 mm 3 mps 753 mmHg 92%
    Show more